This demonstration page uses our WeatherBlox Daily Observations layout. Learn more.

Left ArrowRight Arrow

47.50024, -111.30081

Hourly Observations for May 1, 2022

Temp ( °F °C ) Dew Point ( °F °C ) Humidity (%) Winds ( mph kmh ) Pressure ( in mb ) Visibility ( mi km ) Precip ( " mm )
12:53 am 00:53 Cloudy 46 7.8 35 1.7 66 66 E 10 17 29.98 1015 10 16 0.00 0.00
1:53 am 01:53 Cloudy with Light Rain 46 7.8 35 1.7 66 66 SE 7 11 29.98 1015 10 16 0.00 0.00
2:53 am 02:53 Cloudy with Light Rain 44 6.7 37 2.8 76 76 ESE 5 7 29.98 1015 10 16 0.00 0.00
3:53 am 03:53 Cloudy with Light Rain 43 6.1 39 3.9 86 86 E 6 9 29.99 1016 9 14 0.01 0.25
4:53 am 04:53 Cloudy with Light Rain 42 5.6 39 3.9 89 89 E 9 15 30.01 1016 9 14 0.03 0.76
5:53 am 05:53 Cloudy with Light Rain 41 5 38 3.3 89 89 E 9 15 30.01 1016 10 16 0.02 0.51
6:53 am 06:53 Cloudy with Light Rain 41 5 37 2.8 86 86 E 14 22 30.02 1017 10 16 0.00 0.00
7:53 am 07:53 Cloudy 42 5.6 37 2.8 82 82 E 13 20 30.03 1017 10 16 0.00 0.00
8:53 am 08:53 Cloudy with Light Rain 43 6.1 38 3.3 82 82 E 14 22 30.04 1017 10 16 0.01 0.25
9:53 am 09:53 Cloudy 45 7.2 39 3.9 80 80 E 13 20 30.04 1017 10 16 0.01 0.25
10:19 am 10:19 Cloudy 45 7.2 39 3.9 80 80 E 9 15 30.02 1016 10 16 0.00 0.00
10:53 am 10:53 Cloudy 47 8.3 38 3.3 71 71 E 15 24 30.03 1017 10 16 0.00 0.00
11:48 am 11:48 Cloudy 48 9 37 3 66 66 ESE 16 26 29.99 1016 10 16 0.00 0.00
11:53 am 11:53 Cloudy 49 9.4 38 3.3 66 66 ESE 15 24 30.03 1017 10 16 0.00 0.00
12:32 pm 12:32 Cloudy 49 9.4 38 3.3 66 66 E 12 19 29.97 1015 10 16 0.00 0.00
12:53 pm 12:53 Cloudy 51 10.6 38 3.3 61 61 ESE 13 20 30.02 1017 10 16 0.00 0.00
1:53 pm 13:53 Cloudy 51 10.6 37 2.8 59 59 E 15 24 30.01 1016 10 16 0.00 0.00
2:53 pm 14:53 Cloudy 52 11.1 36 2.2 55 55 SE 10 17 30.01 1016 10 16 0.00 0.00
3:53 pm 15:53 Cloudy 53 11.7 34 1.1 48 48 ESE 5 7 30.00 1016 10 16 0.00 0.00
4:53 pm 16:53 Cloudy 52 11.1 37 2.8 57 57 SW 9 15 30.01 1016 10 16 0.00 0.00
5:53 pm 17:53 Cloudy 51 10.6 37 2.8 59 59 WSW 7 11 30.01 1016 10 16 0.00 0.00
6:53 pm 18:53 Cloudy 50 10 39 3.9 66 66 SSW 8 13 30.02 1017 10 16 0.00 0.00
7:53 pm 19:53 Cloudy 49 9.4 39 3.9 69 69 S 6 9 30.02 1017 10 16 0.00 0.00
8:53 pm 20:53 Cloudy 47 8.3 38 3.3 71 71 S 3 6 30.03 1017 10 16 0.00 0.00
9:53 pm 21:53 Cloudy 47 8.3 37 2.8 69 69 SE 5 7 30.03 1017 10 16 0.00 0.00
10:53 pm 22:53 Cloudy 45 7.2 39 3.9 80 80 SE 7 11 30.02 1017 10 16 0.00 0.00
11:53 pm 23:53 Cloudy 47 8.3 36 2.2 66 66 S 10 17 30.00 1016 10 16 0.00 0.00

Powered by AerisWeather